Location: Poughquag
(41.6090°N, 73.6820°W)
Time: 12:52:59
(UTC-04:00)

Tiros 1 - Pass Details

Date: 03 June 2020
Orbit: 630 x 664 km, 48.4° (Epoch: 06 July)

Event Time Altitude Azimuth Distance (km) Brightness Sun altitude
Rises 11:30:48 0° 222° (SW) 2,975 10.6 64.2°
Reaches altitude 10° 11:33:13 10° 216° (SW) 2,062 9.9 64.6°
Maximum altitude 11:37:47 47° 143° (SE) 863 9.6 65.2°
Drops below altitude 10° 11:42:19 10° 70° (ENE) 2,052 10.0 65.8°
Sets 11:44:42 0° 64° (ENE) 2,959 10.6 66.1°
